STELLA

Last updated on Wed Jun 24 2026 00:03:44 GMT+0000 (Coordinated Universal Time)

1 22824U 93061B 26173.87493073 -.00000041 00000+0 17788-5 0 9998 2 22824 98.7723 238.1478 0005729 212.1483 236.8066 14.27470616705587
UTC large
Height (km)
Speed (km/s)
/
Latitude / Longitude
Inclination (degrees)
Orbital Period (minutes)
Azimuth
Elevation
Range (km)
Doppler Factor

Next 0 passes for location: London (51.5072 / 0.1276)

No passes found over London.
STELLA